[[{"header":{"parameterUnit":"m.s-1","parameterCategory":1,"la1":30.2991,"la2":30.254,"lo1":-89.0895,"lo2":-89.0444,"dy":0.0017,"dx":0.0017,"nx":28,"ny":28,"refTime":"2023-08-30T21:00:00:Z","depth":0,"parameterNumber":2,"parameterNumberName":"U-component_of_WINDS"},"data":[0,0,0,0,0,0,0,0,0,0,0,0,0,0,0,0,0,0,0,0,0,0,0,0,0,0,0,0,0,0,0,0,0,0,0,0,0,0,0,0,0,0,0,0,0,0,0,0,0,0,0,0,0,0,0,0,0,0,-0.0116,-0.0114,0,-0.0001,-0.0,0.0001,0.0045,0.0045,0.0045,0.0044,0.0165,0.0169,0.0172,0,0,0,0,0,0,0,0,0,0,0,0,0,-0.0293,-0.029,-0.0116,-0.0114,-0.0113,-0.0002,-0.0,0.0002,0.0045,0.0045,0.0045,0.0044,0.0164,0.0168,0.0173,0,0,0,0,0,0,0,0,0,0,0,0,0,-0.0201,-0.0289,-0.0116,-0.0078,-0.0073,-0.0002,0.0,0.0002,0.0045,0.0045,0.0044,0.0044,0.0163,0.0168,0.0173,0.0216,0,0,0.0189,0.0192,0,0,0,0,0,0,0,0,-0.0206,-0.0194,-0.0085,-0.008,-0.0075,0.0007,-0.0018,0.0074,0.0046,0.0001,0.0044,0.0044,0.0113,0.0123,0.0145,0.0222,0.0227,0.019,0.0193,0.0195,0.0197,0,0,0,0,0,0,0,-0.0212,-0.0199,-0.007,-0.0083,-0.0077,-0.0065,-0.0053,-0.0,0.0059,0.0004,0.0008,0.0021,0.0116,0.014,0.0149,0.0229,0.019,0.0194,0.0198,0.02,0.0346,0.0346,0,0,0,0,0,0,-0.0226,-0.0204,-0.0074,-0.0067,-0.0143,-0.0062,-0.0048,-0.0019,0.0058,0.0069,0.0021,0.0022,0.0131,0.0142,0.0153,0.0208,0.0195,0.02,0.0203,0.0345,0.0346,0.0346,0,0,0,0,0,0,-0.023,-0.0214,-0.0079,-0.0135,-0.0117,-0.0058,-0.0026,-0.0016,0.0008,0.007,0.0082,0.0034,0.0131,0.0146,0.02,0.0213,0.0203,0.0208,0.0344,0.0345,0.0346,0.0318,0,0,0,0,0,0,-0.0235,-0.0216,-0.02,-0.0135,-0.0114,-0.0035,-0.0025,-0.0014,0.0017,0.0019,0.0086,0.0097,0.0132,0.0191,0.0205,0.022,0.0212,0.0343,0.0345,0.0346,0.0318,0.0318,0.0318,0,0,0,0,0,-0.0241,-0.0211,-0.0199,-0.0184,-0.0093,-0.0034,-0.0022,0.0017,0.0017,0.0035,0.0075,0.0095,0.0209,0.0197,0.0212,0.0229,0.0343,0.0344,0.0346,0.0318,0.0318,0.0318,0,0,0,0,0,0,-0.0275,-0.0202,-0.0188,-0.0136,-0.0092,-0.0027,-0.0004,0.0015,0.0062,0.0062,0.011,0.0125,0.0175,0.0207,0.0192,0.0274,0.0277,0.0282,0.0251,0.0251,0.0251,0.0242,0.0216,0,0,0,0,0,-0.0277,-0.0237,-0.0175,-0.0135,-0.0114,-0.0063,-0.0036,-0.001,0.0038,0.0058,0.0102,0.0149,0.0195,0.0225,0.0272,0.0323,0.0338,0.0342,0.0342,0.0341,0.0345,0.0374,0.0376,0.0352,0.0352,0.0352,0,0,-0.0279,-0.0235,-0.0212,-0.0141,-0.0103,-0.0062,-0.0047,-0.0004,0.0027,0.0065,0.0118,0.0152,0.0208,0.026,0.0286,0.0289,0.0355,0.0343,0.0342,0.0347,0.0376,0.0378,0.038,0.0353,0.0352,0.0352,0,0,-0.0263,-0.0226,-0.0189,-0.0152,-0.0096,-0.0063,-0.0054,0.0008,0.0031,0.0085,0.0114,0.0153,0.0232,0.027,0.03,0.033,0.035,0.0344,0.0343,0.0371,0.0373,0.0375,0.0386,0.0389,0.0347,0.0347,0.0347,0,-0.0273,-0.0211,-0.0172,-0.0131,-0.01,-0.0066,-0.0028,0.0006,0.0075,0.0096,0.0098,0.0197,0.0238,0.03,0.0306,0.033,0.0342,0.0337,0.037,0.0372,0.0374,0.0385,0.0389,0.0346,0.0346,0.0346,0.0346,0,-0.0226,-0.0184,-0.016,-0.0097,-0.0063,-0.0024,0.0022,0.0051,0.0074,0.0107,0.0162,0.0211,0.0267,0.0284,0.0308,0.0349,0.035,0.036,0.0364,0.0375,0.0386,0.039,0.0344,0.0345,0.0345,0.0345,0,0,-0.0228,-0.0144,-0.0136,-0.0107,-0.0043,-0.0009,0.0032,0.0086,0.011,0.0156,0.0192,0.0258,0.0268,0.0302,0.033,0.0354,0.0374,0.0362,0.0364,0.0362,0.0423,0.0414,0.0418,0.0388,0.0389,0.039,0.0418,0,-0.0203,-0.013,-0.0093,-0.0035,0.0005,0.0038,0.0074,0.0117,0.0149,0.0189,0.0225,0.0271,0.028,0.0301,0.0326,0.0366,0.0387,0.0365,0.0423,0.0424,0.0407,0.0424,0.0416,0.044,0.0423,0.0423,0.0424,0,-0.0165,-0.0121,-0.0059,-0.0001,0.0018,0.0049,0.0101,0.0138,0.0188,0.021,0.0247,0.0274,0.032,0.032,0.0383,0.0367,0.0393,0.0416,0.0418,0.0425,0.0425,0.0431,0.0449,0.0453,0.0431,0.043,0.043,0,-0.0172,-0.0097,-0.0051,-0.0027,0.0042,0.0064,0.0094,0.0143,0.0173,0.0219,0.0239,0.029,0.0318,0.0357,0.0397,0.0394,0.0457,0.0461,0.0477,0.0476,0.0489,0.0487,0.0511,0.0505,0.0505,0.0505,0.0505,0,-0.0149,-0.0112,-0.0054,-0.0025,0.0017,0.0059,0.0099,0.0132,0.0176,0.0212,0.0244,0.0277,0.0329,0.0369,0.0401,0.0448,0.0461,0.048,0.0488,0.0478,0.0475,0.0495,0.0495,0.0506,0.0506,0.0506,0.0506,0,-0.015,-0.0109,-0.0057,0.0004,0.002,0.0048,0.0101,0.013,0.0164,0.0209,0.0222,0.0275,0.0324,0.0368,0.0433,0.0455,0.0503,0.0514,0.0486,0.049,0.0503,0.0501,0.054,0.0548,0.0537,0.0537,0.0537,0,-0.0138,-0.0109,-0.0046,-0.0021,0.0008,0.005,0.008,0.0122,0.0152,0.0211,0.0234,0.0284,0.0327,0.0404,0.0449,0.0499,0.0511,0.0521,0.0519,0.0506,0.0511,0.0508,0.0511,0.0521,0.052,0.052,0.052,0,-0.0121,-0.0102,-0.0061,-0.0012,0.0022,0.0063,0.0104,0.0124,0.0174,0.0207,0.0256,0.0289,0.0355,0.0405,0.046,0.0492,0.0515,0.052,0.0527,0.0516,0.0499,0.0508,0.0485,0.052,0.052,0.052,0.052,0.052,-0.0115,-0.0088,-0.004,0.0005,0.0041,0.0078,0.0109,0.0145,0.0187,0.0242,0.0265,0.0315,0.0365,0.0441,0.0473,0.0513,0.0518,0.0527,0.0529,0.0531,0.0529,0.0492,0.0524,0.0524,0.0524,0.0524,0.0524,0,-0.0096,-0.0064,-0.0023,0.0034,0.0069,0.0085,0.0132,0.0161,0.0204,0.0248,0.0289,0.0346,0.0394,0.0443,0.0494,0.0517,0.0529,0.0529,0.0528,0.0535,0.0522,0.0511,0.0519,0.0519,0.0519,0.0519,0.0519,0.0519,-0.0082,-0.0036,-0.0012,0.0051,0.0084,0.0132,0.0158,0.0193,0.0228,0.0289,0.0329,0.0359,0.0405,0.046,0.0505,0.0519,0.0536,0.0534,0.0549,0.0536,0.0536,0.0536,0.0526,0.0537,0.0537,0.0559,0.056,0.056]},{"header":{"parameterUnit":"m.s-1","parameterCategory":1,"la1":30.2991,"la2":30.254,"lo1":-89.0895,"lo2":-89.0444,"dy":0.0017,"dx":0.0017,"nx":28,"ny":28,"refTime":"2023-08-30T21:00:00:Z","depth":0,"parameterNumber":3,"parameterNumberName":"V-component_of_WINDS"},"data":[0,0,0,0,0,0,0,0,0,0,0,0,0,0,0,0,0,0,0,0,0,0,0,0,0,0,0,0,0,0,0,0,0,0,0,0,0,0,0,0,0,0,0,0,0,0,0,0,0,0,0,0,0,0,0,0,0,0,1.3262,1.3262,0,1.3277,1.3277,1.3277,1.3225,1.3224,1.3222,1.3221,1.3236,1.3238,1.324,0,0,0,0,0,0,0,0,0,0,0,0,0,1.3187,1.3188,1.3262,1.3262,1.3262,1.3277,1.3277,1.3277,1.3226,1.3224,1.3222,1.322,1.3236,1.3238,1.324,0,0,0,0,0,0,0,0,0,0,0,0,0,1.3212,1.3189,1.3262,1.3238,1.3236,1.3277,1.3277,1.3277,1.3226,1.3224,1.3221,1.3219,1.3235,1.3238,1.324,1.3304,0,0,1.3249,1.325,0,0,0,0,0,0,0,0,1.3211,1.3215,1.3242,1.324,1.3238,1.3247,1.3256,1.3286,1.3227,1.323,1.3221,1.3218,1.3242,1.3244,1.3252,1.3305,1.3306,1.3249,1.3251,1.3252,1.3253,0,0,0,0,0,0,0,1.3209,1.3214,1.3268,1.3242,1.324,1.3226,1.3227,1.3261,1.3249,1.3229,1.3226,1.3228,1.324,1.3249,1.3252,1.3306,1.3249,1.3251,1.3253,1.3254,1.3407,1.3409,0,0,0,0,0,0,1.3211,1.3213,1.3267,1.3268,1.3218,1.3229,1.3231,1.3246,1.3248,1.3246,1.323,1.3226,1.3245,1.3248,1.3252,1.3323,1.3252,1.3255,1.3256,1.3405,1.3407,1.341,0,0,0,0,0,0,1.3209,1.3216,1.3267,1.324,1.3245,1.3233,1.3251,1.3248,1.3257,1.3249,1.3246,1.3242,1.3244,1.3248,1.329,1.3323,1.3256,1.3258,1.3402,1.3405,1.3409,1.3468,0,0,0,0,0,0,1.3207,1.3216,1.3241,1.3241,1.3247,1.3306,1.3253,1.325,1.3261,1.3256,1.3259,1.3257,1.3242,1.3286,1.3293,1.3325,1.3261,1.3399,1.3403,1.3408,1.3463,1.3473,1.3481,0,0,0,0,0,1.3205,1.3258,1.3242,1.3249,1.3278,1.3308,1.3311,1.3293,1.3265,1.3288,1.3283,1.3257,1.3319,1.3291,1.3298,1.3332,1.3397,1.3402,1.3407,1.3458,1.3471,1.3481,0,0,0,0,0,0,1.3264,1.3258,1.324,1.3295,1.3302,1.3299,1.3329,1.3307,1.3323,1.3317,1.3294,1.3295,1.334,1.3341,1.331,1.3391,1.3352,1.336,1.3389,1.3401,1.341,1.3407,1.3263,0,0,0,0,0,1.3283,1.3308,1.3302,1.3351,1.3355,1.3342,1.3354,1.3339,1.3346,1.3349,1.3346,1.3353,1.3373,1.3388,1.3407,1.3463,1.3461,1.349,1.3499,1.3507,1.3512,1.3537,1.3549,1.3428,1.3428,1.3427,0,0,1.3323,1.3323,1.3341,1.3362,1.3366,1.3391,1.3344,1.3375,1.3392,1.3353,1.3391,1.339,1.3396,1.3445,1.3466,1.3446,1.3545,1.3513,1.352,1.3521,1.3544,1.3555,1.3566,1.3431,1.3431,1.343,0,0,1.3408,1.3412,1.3451,1.3455,1.346,1.3451,1.346,1.346,1.3456,1.3495,1.3464,1.3485,1.3523,1.3527,1.3534,1.3617,1.3592,1.3624,1.3671,1.3696,1.3706,1.3714,1.374,1.3749,1.363,1.363,1.363,0,1.3457,1.3494,1.3474,1.3504,1.3513,1.3478,1.3515,1.352,1.3532,1.3539,1.3517,1.3559,1.3561,1.3608,1.3628,1.3636,1.3644,1.3622,1.3706,1.3714,1.3722,1.3746,1.3756,1.3633,1.3633,1.3633,1.3632,0,1.3552,1.3578,1.3608,1.3618,1.3631,1.3665,1.3648,1.3664,1.3647,1.3639,1.3676,1.3678,1.3694,1.3704,1.369,1.3748,1.3735,1.371,1.367,1.3737,1.3759,1.3768,1.3638,1.3637,1.3636,1.3635,0,0,1.3674,1.367,1.3681,1.3683,1.3686,1.3705,1.3737,1.3751,1.3763,1.3772,1.3795,1.3826,1.3802,1.381,1.3795,1.3818,1.3878,1.3789,1.3789,1.3802,1.3937,1.3953,1.3964,1.3862,1.3864,1.3866,1.3935,0,1.3754,1.3806,1.3787,1.3841,1.3862,1.3828,1.3854,1.3858,1.3851,1.3867,1.386,1.388,1.3849,1.3853,1.3874,1.3866,1.3904,1.3861,1.3881,1.3882,1.3877,1.3976,1.3994,1.4059,1.3944,1.3945,1.3946,0,1.3854,1.3865,1.3919,1.3914,1.3922,1.3947,1.3956,1.3974,1.3976,1.3969,1.3976,1.3955,1.3984,1.3946,1.3982,1.3954,1.3961,1.3958,1.396,1.3959,1.3916,1.3974,1.408,1.4089,1.3961,1.3959,1.3958,0,1.3932,1.3961,1.3996,1.3999,1.3995,1.4012,1.4011,1.4011,1.402,1.4029,1.4034,1.4047,1.4053,1.4062,1.4045,1.4019,1.4083,1.4044,1.4075,1.4075,1.4088,1.4087,1.4193,1.4099,1.4099,1.4098,1.4098,0,1.4022,1.4055,1.403,1.4051,1.4087,1.4065,1.4101,1.4096,1.4096,1.4114,1.4087,1.4105,1.4082,1.4097,1.4084,1.4114,1.4118,1.4111,1.4107,1.4112,1.4112,1.4114,1.4108,1.4101,1.41,1.41,1.4099,0,1.4114,1.4099,1.4134,1.4126,1.4125,1.4151,1.4144,1.4162,1.4153,1.4176,1.418,1.4165,1.4181,1.4165,1.4181,1.4172,1.4211,1.4202,1.421,1.4206,1.4236,1.4232,1.4345,1.4357,1.4258,1.4259,1.426,0,1.417,1.4195,1.4188,1.4198,1.4198,1.4215,1.4223,1.4202,1.4211,1.4213,1.4231,1.4245,1.4254,1.4281,1.4271,1.4282,1.427,1.4309,1.4271,1.4274,1.4266,1.4263,1.4263,1.4315,1.4317,1.4318,1.4319,0,1.427,1.426,1.4272,1.4281,1.4291,1.4297,1.4301,1.4311,1.4289,1.43,1.4315,1.4323,1.4337,1.435,1.4357,1.4355,1.4332,1.4331,1.4337,1.4341,1.4343,1.4338,1.4226,1.4327,1.4327,1.4326,1.4325,1.4325,1.4343,1.4361,1.4358,1.4372,1.4372,1.4376,1.4391,1.4383,1.4395,1.4404,1.4391,1.4409,1.4408,1.4415,1.4415,1.4428,1.4411,1.4423,1.4425,1.4427,1.443,1.4344,1.443,1.443,1.4429,1.4429,1.4429,0,1.4437,1.4433,1.4446,1.4451,1.4461,1.4438,1.4441,1.445,1.4466,1.4467,1.4476,1.4491,1.4503,1.4493,1.4502,1.4514,1.4503,1.4516,1.4514,1.4513,1.4446,1.4437,1.4524,1.4524,1.4524,1.4524,1.4524,1.4524,1.4487,1.4515,1.4505,1.4532,1.4528,1.4545,1.4547,1.455,1.4549,1.4568,1.4577,1.457,1.4565,1.4573,1.4582,1.4578,1.4581,1.4597,1.459,1.4527,1.4518,1.4509,1.45,1.4599,1.4599,1.4655,1.4655,1.4656]}]]